Location: Amon Carter Post Office
(32.8281°N, 97.0484°W)
Time: 23:51:35
(UTC+00:00)

Lacrosse 5 rocket - Pass Details

Date: 03 July 2022
Orbit: 456 x 628 km, 57.0° (Epoch: 09 August)

Event Time Altitude Azimuth Distance (km) Brightness Sun altitude
Rises 03:01:46 0° 330° (NNW) 2,596 6.2 -14.9°
Reaches altitude 10° 03:04:02 10° 340° (NNW) 1,738 4.8 -15.3°
Maximum altitude 03:07:39 35° 47° (NE) 875 2.3 -15.9°
Enters shadow 03:09:20 24° 93° (E) 1,134 2.5 -16.1°
